When you browse on this site, cookies collect data to enhance your experience and personalize the content and advertising you see.
Visit our Privacy Policy to learn more. By continuing to use the site, you agree to this use of cookies and data.
  • In Spain
  • List of Countries
  • For 7 days
  • Water Temperature
  • Weather Map
  • Weather Widgets
  • user-avatar
    Login

    Hourly Weather Sana

    Today, 28 May, Thursday

    Time Temperature Precipitation Wind Pressure Humidity
    00:00 +21°C° 0 mm 3 mps 581 mmHg 41%
    01:00 +20°C° 0 mm 3 mps 580 mmHg 43%
    02:00 +20°C° 0 mm 3 mps 580 mmHg 44%
    03:00 +19°C° 0 mm 2 mps 579 mmHg 45%
    04:00 +19°C° 0 mm 2 mps 579 mmHg 46%
    05:00 +19°C° 0 mm 2 mps 579 mmHg 47%
    06:00 +19°C° 0 mm 2 mps 580 mmHg 48%
    07:00 +20°C° 0 mm 3 mps 580 mmHg 43%
    08:00 +21°C° 0 mm 5 mps 581 mmHg 37%
    09:00 +23°C° 0 mm 6 mps 582 mmHg 32%
    10:00 +23°C° 0 mm 6 mps 582 mmHg 30%
    11:00 +24°C° 0 mm 6 mps 582 mmHg 27%
    12:00 +26°C° 0 mm 5 mps 582 mmHg 25%
    13:00 +26°C° 0 mm 6 mps 582 mmHg 24%
    14:00 +26°C° 0 mm 6 mps 581 mmHg 23%
    15:00 +27°C° 0 mm 6 mps 581 mmHg 21%
    16:00 +26°C° 0 mm 6 mps 581 mmHg 21%
    17:00 +26°C° 0 mm 6 mps 581 mmHg 21%
    18:00 +26°C° 0 mm 6 mps 581 mmHg 21%
    19:00 +25°C° 0 mm 5 mps 581 mmHg 23%
    20:00 +23°C° 0 mm 4 mps 581 mmHg 25%
    21:00 +22°C° 0 mm 3 mps 581 mmHg 27%
    22:00 +21°C° 0 mm 3 mps 581 mmHg 27%
    23:00 +21°C° 0 mm 3 mps 580 mmHg 28%

    Tomorrow, 29 May, Friday

    Time Temperature Precipitation Wind Pressure Humidity
    00:00 +20°C° 0 mm 2 mps 580 mmHg 29%
    01:00 +20°C° 0 mm 2 mps 579 mmHg 30%
    02:00 +19°C° 0 mm 2 mps 579 mmHg 31%
    03:00 +19°C° 0 mm 2 mps 578 mmHg 32%
    04:00 +19°C° 0 mm 2 mps 578 mmHg 32%
    05:00 +19°C° 0 mm 2 mps 578 mmHg 32%
    06:00 +18°C° 0 mm 2 mps 578 mmHg 32%
    07:00 +20°C° 0 mm 3 mps 579 mmHg 27%
    08:00 +22°C° 0 mm 5 mps 581 mmHg 22%
    09:00 +24°C° 0 mm 6 mps 582 mmHg 17%
    10:00 +26°C° 0 mm 6 mps 582 mmHg 16%
    11:00 +27°C° 0 mm 7 mps 582 mmHg 15%
    12:00 +27°C° 0 mm 7 mps 582 mmHg 14%
    13:00 +28°C° 0 mm 6 mps 581 mmHg 14%
    14:00 +28°C° 0 mm 6 mps 581 mmHg 13%
    15:00 +28°C° 0 mm 6 mps 581 mmHg 13%
    16:00 +28°C° 0 mm 6 mps 581 mmHg 14%
    17:00 +27°C° 0 mm 6 mps 580 mmHg 16%
    18:00 +26°C° 0 mm 6 mps 580 mmHg 18%
    19:00 +26°C° 0 mm 5 mps 580 mmHg 22%
    20:00 +25°C° 0 mm 4 mps 580 mmHg 27%
    21:00 +24°C° 0 mm 3 mps 580 mmHg 31%
    22:00 +23°C° 0 mm 2 mps 580 mmHg 32%
    23:00 +23°C° 0 mm 2 mps 579 mmHg 33%

    Day after tomorrow, 30 May, Saturday

    Time Temperature Precipitation Wind Pressure Humidity
    00:00 +21°C° 0 mm 2 mps 579 mmHg 34%
    01:00 +21°C° 0 mm 2 mps 578 mmHg 34%
    02:00 +20°C° 0 mm 2 mps 578 mmHg 35%
    03:00 +20°C° 0 mm 2 mps 577 mmHg 35%
    04:00 +20°C° 0 mm 1 mps 577 mmHg 36%
    05:00 +20°C° 0 mm 1 mps 578 mmHg 36%
    06:00 +20°C° 0 mm 1 mps 578 mmHg 36%
    07:00 +21°C° 0 mm 2 mps 579 mmHg 30%
    08:00 +24°C° 0 mm 3 mps 580 mmHg 23%
    09:00 +25°C° 0 mm 4 mps 581 mmHg 17%
    10:00 +26°C° 0 mm 5 mps 581 mmHg 16%
    11:00 +27°C° 0 mm 6 mps 581 mmHg 14%
    12:00 +28°C° 0 mm 7 mps 582 mmHg 13%
    13:00 +28°C° 0 mm 6 mps 581 mmHg 13%
    14:00 +29°C° 0 mm 6 mps 581 mmHg 13%
    15:00 +29°C° 0 mm 5 mps 581 mmHg 14%
    16:00 +28°C° 0 mm 5 mps 581 mmHg 15%
    17:00 +28°C° 0 mm 5 mps 581 mmHg 17%
    18:00 +27°C° 0 mm 5 mps 580 mmHg 18%
    19:00 +26°C° 0 mm 4 mps 581 mmHg 25%
    20:00 +25°C° 0 mm 3 mps 581 mmHg 32%
    21:00 +24°C° 0 mm 3 mps 581 mmHg 39%
    22:00 +22°C° 0 mm 3 mps 580 mmHg 43%
    23:00 +21°C° 0 mm 3 mps 580 mmHg 47%

    31 May, Sunday

    Time Temperature Precipitation Wind Pressure Humidity
    00:00 +21°C° 0 mm 3 mps 580 mmHg 52%
    01:00 +19°C° 0.4 mm 3 mps 579 mmHg 57%
    02:00 +18°C° 0.4 mm 3 mps 578 mmHg 62%
    03:00 +17°C° 0.4 mm 3 mps 578 mmHg 67%
    04:00 +17°C° 0.4 mm 3 mps 578 mmHg 67%
    05:00 +17°C° 0.4 mm 3 mps 578 mmHg 67%
    06:00 +17°C° 0.4 mm 3 mps 578 mmHg 67%
    07:00 +19°C° 0 mm 4 mps 579 mmHg 57%
    08:00 +21°C° 0 mm 5 mps 580 mmHg 47%
    09:00 +23°C° 0 mm 6 mps 581 mmHg 37%
    10:00 +24°C° 0 mm 7 mps 581 mmHg 34%
    11:00 +26°C° 0 mm 8 mps 582 mmHg 30%
    12:00 +27°C° 0 mm 9 mps 582 mmHg 27%
    13:00 +27°C° 0 mm 8 mps 582 mmHg 26%
    14:00 +28°C° 0 mm 8 mps 581 mmHg 24%
    15:00 +28°C° 0 mm 8 mps 581 mmHg 23%
    16:00 +27°C° 0 mm 8 mps 581 mmHg 24%
    17:00 +27°C° 0 mm 7 mps 581 mmHg 26%
    18:00 +26°C° 0 mm 7 mps 580 mmHg 27%
    19:00 +24°C° 0 mm 7 mps 580 mmHg 30%
    20:00 +24°C° 0 mm 6 mps 581 mmHg 33%
    21:00 +23°C° 0 mm 5 mps 581 mmHg 35%
    22:00 +22°C° 0 mm 4 mps 580 mmHg 37%
    23:00 +22°C° 0 mm 4 mps 580 mmHg 38%

    1 June, Monday

    Time Temperature Precipitation Wind Pressure Humidity
    00:00 +21°C° 0 mm 3 mps 579 mmHg 40%
    01:00 +21°C° 0 mm 3 mps 579 mmHg 42%
    02:00 +20°C° 0 mm 2 mps 579 mmHg 43%
    03:00 +20°C° 0 mm 2 mps 578 mmHg 45%
    04:00 +19°C° 0 mm 2 mps 578 mmHg 47%
    05:00 +19°C° 0 mm 2 mps 579 mmHg 48%
    06:00 +19°C° 0 mm 2 mps 579 mmHg 50%
    07:00 +20°C° 0 mm 3 mps 580 mmHg 46%
    08:00 +21°C° 0 mm 4 mps 580 mmHg 42%
    09:00 +22°C° 0 mm 5 mps 581 mmHg 38%
    10:00 +23°C° 0 mm 6 mps 581 mmHg 35%
    11:00 +24°C° 0 mm 6 mps 581 mmHg 33%
    12:00 +26°C° 0 mm 7 mps 581 mmHg 30%
    13:00 +26°C° 0 mm 7 mps 580 mmHg 31%
    14:00 +24°C° 0 mm 7 mps 580 mmHg 33%
    15:00 +24°C° 0 mm 8 mps 579 mmHg 34%
    16:00 +24°C° 0.1 mm 7 mps 579 mmHg 35%
    17:00 +24°C° 0.1 mm 7 mps 579 mmHg 36%
    18:00 +23°C° 0.1 mm 7 mps 579 mmHg 37%
    19:00 +23°C° 0 mm 7 mps 579 mmHg 40%
    20:00 +22°C° 0 mm 6 mps 579 mmHg 43%
    21:00 +22°C° 0 mm 6 mps 579 mmHg 46%
    22:00 +21°C° 0.1 mm 6 mps 579 mmHg 50%
    23:00 +20°C° 0.1 mm 5 mps 579 mmHg 54%

    2 June, Tuesday

    Time Temperature Precipitation Wind Pressure Humidity
    00:00 +20°C° 0.1 mm 5 mps 578 mmHg 58%
    01:00 +20°C° 0.2 mm 4 mps 578 mmHg 59%
    02:00 +19°C° 0.2 mm 4 mps 577 mmHg 60%
    03:00 +19°C° 0.2 mm 3 mps 577 mmHg 61%
    04:00 +19°C° 0.1 mm 4 mps 577 mmHg 61%
    05:00 +19°C° 0.1 mm 4 mps 577 mmHg 61%
    06:00 +19°C° 0.1 mm 5 mps 578 mmHg 62%
    07:00 +19°C° 0.1 mm 6 mps 578 mmHg 59%
    08:00 +19°C° 0.1 mm 6 mps 578 mmHg 57%
    09:00 +20°C° 0.1 mm 7 mps 579 mmHg 55%
    10:00 +21°C° 0 mm 7 mps 579 mmHg 52%
    11:00 +22°C° 0 mm 7 mps 579 mmHg 50%
    12:00 +23°C° 0 mm 7 mps 580 mmHg 47%
    13:00 +22°C° 0.2 mm 7 mps 579 mmHg 52%
    14:00 +21°C° 0.2 mm 6 mps 578 mmHg 56%
    15:00 +20°C° 0.2 mm 6 mps 578 mmHg 61%
    16:00 +20°C° 1 mm 5 mps 578 mmHg 65%
    17:00 +19°C° 1 mm 5 mps 577 mmHg 69%
    18:00 +19°C° 1 mm 4 mps 577 mmHg 73%
    19:00 +18°C° 0.6 mm 4 mps 577 mmHg 75%
    20:00 +18°C° 0.6 mm 4 mps 577 mmHg 78%
    21:00 +17°C° 0.6 mm 4 mps 577 mmHg 81%
    22:00 +17°C° 2.9 mm 3 mps 577 mmHg 83%
    23:00 +17°C° 2.9 mm 3 mps 577 mmHg 86%
    Show more